Simultaneous Nadir Overpasses (SNOs) Predictions

Prediction of SNOs between AQUA and NOAA-19 Satellite Orbit:

Table of predicted SNOs for the next 14.0 days since TLE Epoch: 6/7/2019
Index Date (AQUA) Time (AQUA) Lat,Lon (AQUA) SZA (AQUA ) Date (NOAA-19) Time (NOAA-19) Lat,Lon (NOAA-19) SZA (NOAA-19 ) Distance(km) Time Diff (sec)
1 06/09/2019 18:44:58 80.42,-135.44 59.19 06/09/2019 18:44:58 80.40,-135.52 59.18 2.25 0
2 06/12/2019 00:18:41 -80.41, -38.78 120.99 06/12/2019 00:18:28 -80.40, -38.77 120.98 0.40 13
3 06/12/2019 01:08:07 80.39, 129.03 58.98 06/12/2019 01:09:18 80.50, 130.42 58.91 28.43 71
4 06/14/2019 05:52:24 80.40, 57.88 58.88 06/14/2019 05:51:49 80.39, 57.80 58.90 1.49 35
5 06/14/2019 06:41:51 -80.41,-134.60 121.10 06/14/2019 06:42:53 -80.42,-134.44 121.13 3.27 62
6 06/16/2019 11:26:07 -80.38, 154.58 121.23 06/16/2019 11:25:20 -80.39, 154.40 121.19 3.34 47
7 06/16/2019 12:15:34 80.41, -38.00 58.81 06/16/2019 12:16:14 80.40, -38.00 58.80 0.07 40
8 06/18/2019 16:59:50 80.39,-108.88 58.73 06/18/2019 16:58:40 80.38,-108.93 58.76 0.98 70
9 06/18/2019 17:49:17 -80.39, 58.72 121.27 06/18/2019 17:49:45 -80.40, 58.67 121.26 1.81 28




NCC Satellite Simultaneous Nadir Overpasses (SNOs) Prediction Service
